User: anonymous   Login
Location: PFO Observatory
(45.2937°N, 66.0991°W)
Time: 07:20:58
(UTC-03:00)
Language:

Cosmos 1151 Rocket - Orbit

View from above orbital plane
View from above orbital plane
View from above satellite
View from above satellite

Ground track
Ground track

The orbit data is extracted from the following two-line orbital elements,

1 11672U 80005B   14296.05632240  .00001137  00000-0  12320-3 0  1618
2 11672 082.5147 272.8693 0015277 290.8266 136.1322 14.87285196879461
Epoch (UTC): 23 October 2014 01:21:06
Eccentricity: 0.0015277
inclination: 82.5147°
perigee height: 596 km
apogee height: 617 km
right ascension of ascending node: 272.8693°
argument of perigee: 290.8266°
revolutions per day: 14.87285196
mean anomaly at epoch: 136.1322°
orbit number at epoch: 87946

The dashed part of the orbit path shows where the satellite is in the earth's shadow,  

DLR